Wed, 12 May 2021 02:02:56 UTC

Information for RPM xxhash-libs-0.7.2-3.fc32.s390x.rpm

ID20488046
Namexxhash-libs
Version0.7.2
Release3.fc32
Epoch
Archs390x
SummaryExtremely fast hash algorithm - library
DescriptionxxHash is an Extremely fast Hash algorithm, running at RAM speed limits. It successfully completes the SMHasher test suite which evaluates collision, dispersion and randomness qualities of hash functions. Code is highly portable, and hashes are identical on all platforms (little / big endian).
Build Time2020-02-07 07:23:58 GMT
Size32,159
bfc690eb1aa8b2fab690d08155c2c360
LicenseBSD
Buildrootf32-build-19378765-1356724
Provides
libxxhash.so.0()(64bit)
xxhash-libs = 0.7.2-3.fc32
xxhash-libs(s390-64) = 0.7.2-3.fc32
Obsoletes No Obsoletes
Conflicts No Conflicts
Requires
libc.so.6()(64bit)
libc.so.6(GLIBC_2.2)(64bit)
libc.so.6(GLIBC_2.3.4)(64bit)
libc.so.6(GLIBC_2.4)(64bit)
rpmlib(CompressedFileNames) <= 3.0.4-1
rpmlib(FileDigests) <= 4.6.0-1
rpmlib(PayloadFilesHavePrefix) <= 4.0-1
rpmlib(PayloadIsZstd) <= 5.4.18-1
rtld(GNU_HASH)
Recommends No Recommends
Suggests No Suggests
Supplements No Supplements
Enhances No Enhances
Files
1 through 9 of 9
Name ascending sort Size
/usr/lib/.build-id0
/usr/lib/.build-id/a70
/usr/lib/.build-id/a7/8ec9e3f453ad20635b9a51ed10a809b32df57040
/usr/lib64/libxxhash.so.018
/usr/lib64/libxxhash.so.0.7.244,528
/usr/share/doc/xxhash-libs0
/usr/share/doc/xxhash-libs/README.md8,347
/usr/share/licenses/xxhash-libs0
/usr/share/licenses/xxhash-libs/LICENSE2,235
Component of
Page:
1 through 50 of 10594 >>>
Buildroot descending sort Created State
f32-build-19875738-1410603 2020-03-16 20:21:46 expired
f32-build-19875285-1410529 2020-03-16 19:42:51 expired
f32-build-19875247-1410529 2020-03-16 19:39:17 expired
f32-build-19875190-1410529 2020-03-16 19:33:10 expired
f32-build-19875173-1410529 2020-03-16 19:17:05 expired
f32-build-19875088-1410529 2020-03-16 19:08:25 expired
f32-build-19874949-1410486 2020-03-16 18:49:30 expired
f32-build-19874549-1410433 2020-03-16 18:14:28 expired
f32-build-19873818-1410433 2020-03-16 16:47:45 expired
f32-build-19873783-1410433 2020-03-16 16:34:35 expired
f32-build-19873688-1410433 2020-03-16 16:26:43 expired
f32-build-19873563-1410393 2020-03-16 16:08:18 expired
f32-build-19873377-1410393 2020-03-16 15:43:28 expired
f32-build-19873376-1410393 2020-03-16 15:43:27 expired
f32-build-19873138-1410393 2020-03-16 15:25:40 expired
f32-build-19873018-1410393 2020-03-16 15:12:36 expired
f32-build-19872945-1410393 2020-03-16 15:04:25 expired
f32-build-19872916-1410393 2020-03-16 14:59:53 expired
f32-build-19871117-1410253 2020-03-16 13:20:45 expired
f32-build-19870747-1410125 2020-03-16 12:53:58 expired
f32-build-19869894-1410125 2020-03-16 12:26:19 expired
f32-build-19868133-1410125 2020-03-16 11:21:30 expired
f32-build-19868050-1410125 2020-03-16 11:18:20 expired
f32-build-19867773-1410125 2020-03-16 11:09:24 expired
f32-build-19867086-1410125 2020-03-16 10:45:07 expired
f32-build-19865037-1410125 2020-03-16 09:22:47 expired
f32-build-19864322-1410125 2020-03-16 08:46:17 expired
f32-build-19864092-1410125 2020-03-16 08:26:06 expired
f32-build-19863876-1410125 2020-03-16 08:06:10 expired
f32-build-19863838-1410125 2020-03-16 08:04:13 expired
f32-build-19863690-1410125 2020-03-16 07:55:40 expired
f32-build-19863682-1410125 2020-03-16 07:55:28 expired
f32-build-19863456-1410125 2020-03-16 07:44:21 expired
f32-build-19863311-1410125 2020-03-16 07:34:24 expired
f32-build-19863190-1410125 2020-03-16 07:27:50 expired
f32-build-19862881-1410125 2020-03-16 07:04:25 expired
f32-build-19862130-1410125 2020-03-16 05:46:38 expired
f32-build-19860833-1410125 2020-03-16 04:56:28 expired
f32-build-19859520-1410125 2020-03-16 03:44:44 expired
f32-build-19850991-1410099 2020-03-15 22:10:23 expired
f32-build-19847864-1410099 2020-03-15 20:13:39 expired
f32-build-19845088-1410099 2020-03-15 17:58:19 expired
f32-build-19845038-1410070 2020-03-15 17:40:12 expired
f32-build-19844886-1410043 2020-03-15 17:01:52 expired
f32-build-19844751-1409931 2020-03-15 16:45:01 expired
f32-gnome-19844646-1409936 2020-03-15 16:25:42 expired
f32-build-19844456-1409931 2020-03-15 15:34:17 expired
f32-build-19844388-1409931 2020-03-15 15:15:40 expired
f32-build-19844261-1409931 2020-03-15 14:37:43 expired
f32-build-19844234-1409931 2020-03-15 14:12:06 expired